Location: Eschentzwiller
(47.7125°N, 7.3981°E)
Time: 04:17:37
(UTC+00:00)

Meteor 2-14 Rocket - Pass Details

Date: 27 October 2020
Orbit: 937 x 957 km, 82.5° (Epoch: 01 December)

Event Time Altitude Azimuth Distance (km) Brightness Sun altitude
Rises 16:45:19 0° 351° (N) 3,646 7.4 -4.9°
Reaches altitude 10° 16:47:51 10° 354° (N) 2,694 6.8 -5.3°
Maximum altitude 16:54:01 71° 79° (E) 1,003 4.4 -6.3°
Drops below altitude 10° 17:00:05 10° 163° (SSE) 2,662 6.8 -7.3°
Sets 17:02:34 0° 166° (SSE) 3,600 7.4 -7.7°
